#timestamp,LO_Frequency,Hit,StdDev 
1534190415.6,286046999.3,N
1534190435.5,286046999.0,N
1534190455.3,286046999.3,N
1534190475.2,286046998.9,N
1534190495.9,286046999.4,N
1534190515.7,286046997.1,N
1534190535.6,286046998.9,N
1534190555.4,286046997.0,N
1534190575.2,286046999.6,N
1534190595.1,286046996.7,Y
1534190596.0,286046996.7,P
1534190615.8,286046999.2,N
1534190635.7,286046996.7,N
1534190655.5,286046997.1,N
1534190675.3,286046996.5,N
1534190695.2,286046997.3,N
1534190715.0,286046996.8,N
1534190715.9,286046996.8,Y
1534190735.8,286046998.5,P
1534190755.6,286047000.9,N
1534190775.4,286046998.8,N
1534190795.3,286046998.3,N
1534190815.1,286046999.3,N
1534190835.9,286046996.5,Y
1534190855.7,286046999.5,P
1534190875.5,286046998.4,P
1534190895.4,286046998.4,P
1534190915.2,286046998.7,N
1534190935.0,286047000.8,N
1534190935.9,286047000.8,N
1534190955.8,286046998.7,N
1534190975.6,286046999.2,N
1534190995.5,286046999.3,N
1534191015.3,286046997.0,Y
1534191035.1,286046999.6,P
1534191055.9,286046999.5,P
1534191075.7,286046996.8,P
1534191095.6,286046995.0,Y
1534191115.4,286046996.5,P
1534191135.2,286046999.3,N
1534191155.1,286046999.5,N
1534191156.0,286046999.5,N
1534191175.8,286046999.5,N
1534191195.7,286046996.5,Y
1534191215.5,286046999.0,P
1534191235.3,286046999.0,P
1534191255.2,286046996.9,P
1534191275.0,286046997.0,Y
1534191275.9,286046997.0,P
1534191295.8,286047000.8,N
1534191315.6,286047000.0,N
1534191335.4,286047000.4,N
1534191355.3,286047000.8,N
1534191375.1,286047001.2,N
1534191395.8,286046998.1,N
1534191415.7,286047000.5,N
1534191435.5,286046998.3,N
1534191455.4,286046998.9,N
1534191475.2,286046999.2,N
1534191495.0,286046996.5,N
1534191495.9,286046996.5,N
1534191515.8,286046999.2,N
1534191535.6,286046996.5,N
1534191555.4,286046999.4,N
1534191575.3,286046999.2,N
1534191595.1,286046998.7,N
1534191615.9,286046996.9,N
1534191635.7,286046999.6,N
1534191655.5,286046998.7,N
1534191675.4,286046999.0,N
1534191695.2,286047001.1,N
1534191715.0,286046998.5,N
1534191716.0,286046998.5,N
1534191735.8,286046999.3,N
1534191755.6,286046999.1,N
1534191775.5,286046999.3,N
1534191795.3,286046998.7,N
1534191815.1,286046998.9,N
1534191835.9,286046998.8,N
1534191855.7,286046998.4,N
1534191875.6,286046998.9,N
1534191895.4,286046999.5,N
1534191915.2,286046999.0,N
1534191935.1,286046999.3,N
1534191936.0,286046999.3,N
1534191955.8,286046999.4,N
1534191975.7,286046999.4,N
1534191995.5,286046999.3,N
1534192015.3,286046999.4,N
1534192035.2,286046998.3,N
1534192055.0,286046998.9,N
1534192055.9,286046998.9,N
1534192075.7,286046998.8,N
1534192095.6,286046998.6,N
1534192115.4,286046998.4,N
1534192135.3,286046999.3,N
1534192155.1,286046998.8,N
1534192156.0,286046998.8,N
1534192175.8,286046998.7,N
1534192195.7,286046998.8,N
1534192215.5,286046996.5,Y
1534192235.3,286046998.2,P
1534192255.2,286046999.3,N
1534192275.0,286046998.9,N
1534192275.9,286046998.9,N
1534192295.8,286047001.2,Y
1534192315.6,286047000.1,P
1534192335.4,286046999.7,N
1534192355.3,286047002.7,P
1534192375.1,286047001.8,N
1534192395.9,286047002.0,N
1534192415.7,286047002.5,N
1534192435.5,286047002.4,N
1534192455.4,286047000.4,N
1534192475.2,286046999.8,N
1534192495.0,286047002.8,N
1534192495.9,286047002.8,N
1534192515.8,286047002.0,N
1534192535.6,286047004.4,Y
1534192555.5,286047000.1,P
1534192575.3,286047002.8,P
1534192595.1,286047002.5,N
1534192615.9,286047002.1,N
1534192635.7,286047000.6,N
1534192655.5,286047000.5,N
1534192675.4,286047000.2,N
1534192695.2,286047001.0,N
1534192715.1,286047000.4,N
1534192716.0,286047000.4,N
1534192735.8,286047001.2,N
1534192755.6,286047000.2,N
1534192775.5,286047000.2,N
1534192795.3,286047000.4,N
1534192815.1,286047000.0,N
1534192835.9,286047002.7,Y
1534192855.7,286047002.4,P
1534192875.6,286046999.7,N
1534192895.4,286046999.8,N
1534192915.2,286047000.3,N
1534192935.1,286047001.1,N
1534192936.0,286047001.1,N
1534192955.8,286047000.3,N
1534192975.7,286047000.4,N
1534192995.5,286046999.9,N
1534193015.3,286047000.4,N
1534193035.2,286047000.9,N
1534193055.0,286046998.2,N
1534193055.9,286046998.2,N
1534193075.7,286047000.0,N
1534193095.6,286047001.0,N
1534193115.4,286047000.3,N
1534193135.3,286047000.3,N
1534193155.1,286047000.0,N
1534193156.0,286047000.0,N
1534193175.8,286047002.2,N
1534193195.7,286047000.1,N
1534193215.5,286047001.5,N
1534193235.3,286047002.0,N
1534193255.2,286047002.2,N
1534193275.0,286047002.5,N
1534193275.9,286047002.5,N
1534193295.8,286046999.8,N
1534193315.6,286047000.5,N
1534193335.4,286047002.5,N
1534193355.3,286047002.0,N
1534193375.1,286047002.1,N
1534193395.8,286046999.7,N
1534193415.7,286047002.8,N
1534193435.5,286046999.9,N
1534193455.4,286047000.8,N
1534193475.2,286047000.9,N
1534193495.0,286046998.2,N
1534193495.9,286046998.2,N
1534193515.8,286047000.7,N
1534193535.6,286047000.9,N
1534193555.4,286047000.1,N
1534193575.3,286047000.3,N
1534193595.1,286046999.8,N
1534193615.9,286047002.2,N
1534193635.7,286047002.0,N
1534193655.5,286047002.2,N
1534193675.4,286047001.6,N
1534193695.2,286047002.0,N
1534193715.0,286047001.9,N
1534193715.9,286047001.9,N
1534193735.8,286047001.4,N
1534193755.6,286047001.5,N
1534193775.5,286047001.5,N
1534193795.3,286047001.7,N
1534193815.1,286047004.2,Y
1534193835.9,286047002.2,P
1534193855.7,286047002.5,P
1534193905.6,286047002.1,E
1534193915.5,286047002.8,N
1534193935.3,286047001.0,P
1534193955.2,286047001.0,N
1534193975.0,286046999.9,N
1534193975.9,286046999.9,N
1534193995.8,286047000.9,N
